CZ-6A DEB

Satellite information

Favourite Embed

Satellite Type and Status

DEBRISIN ORBIT

Key statistics

Satellite CZ-6A DEB at a glance.

Uptime

335

Days in orbit

Revolutions

≈ 14.2

Per day

Orbit

LEO

Low Earth Orbit

Inclination

89.0

Latest

Satellite identification and parameters

Extended collection of information and parameters for CZ-6A DEB.

Object identification

Identified? True

Debris? True

Object name: CZ-6A DEB

International designator: 2024-140KR

Object number (NORAD): 60886

Object ID (CCSDS): 60886

Country: PEOPLES REPUBLIC OF CHINA (PRC)

Current information (Y/N): Y

RCS size: MEDIUM

Orbital parameters

Period: 101.668 minutes

Inclination: 89.0201 deg

SMA: 7215.788 km

Apoapsis: 881.28 km

Periapsis: 794.026 km

RAAN: 314.4738 deg

Eccentricy: 0.006046

Argument of periapsis: 223.8445 deg

Mean anomaly: 135.7936 deg

Mean motion: 14.16371309 rev/day

Mean motion (dot): 0.00000654 rev/day2

B* drag term: 0.00031709 1/REarth

Two-line elements (TLE)

Creation date: July 6, 2025, 10:46 p.m.

Reference frame: TEME

Reference center: EARTH

Epoch: July 6, 2025, 8:19 p.m. UTC

TLE line 0: 0 CZ-6A DEB

TLE line 1: 1 60886U 24140KR 25187.84700878 .00000654 00000-0 31709-3 0 9992

TLE line 2: 2 60886 89.0201 314.4738 0060460 223.8445 135.7936 14.16371309 45529

Live tracking on map

Real-time ground track for satellite CZ-6A DEB.

In-orbit conjunctions

A list of the most updated potential collisions computed for object CZ-6A DEB.

Target Orbit TCA Probability of collision Miss distance Type
NOAA 16 DEB SSO 2025-02-26 01:18:36 0.0001681469 256.0 (m) DEBRIS
FENGYUN 1C DEB SSO 2025-02-02 20:53:38 0.0001738735 282.0 (m) DEBRIS
METEOR 2-17 DEB LEO 2025-01-20 15:28:44 0.0002382545 484.0 (m) DEBRIS
DELTA 1 DEB * SSO 2025-01-08 17:45:34 0.0006842276 299.0 (m) DEBRIS
FENGYUN 1C DEB SSO 2024-10-11 10:12:46 0.0001487867 880.0 (m) DEBRIS

Associated space launch

18 Low Earth Orbit communication satellites with Ku, Q and V band payloads for the G60 constellation operated by Shanghai Spacecom Satellite Technology (SSST) with funding backed by the Shanghai local government. Initial constellation will consist of 1296 satellites by 2027 with long term plans to expand it to 12000 satellites.

CZ-6A DEB was lifted into orbit during the mission ‘Long March 6A | G60 Polar Group 01’, on board a Long March 6A space rocket.

The launch took place on Aug. 6, 2024, 6:42 a.m. from Launch Complex 9A.

For more information about the launch, click the button.

Launch to space Long March 6A | G60 Polar Group 01
Long March 6A | G60 Polar Group 01

Agency: N/A

Status: Launch Successful

Launch date: Aug. 6, 2024, 6:42 a.m. UTC

Rocket: Long March 6A

Launch pad: Launch Complex 9A

Location: Taiyuan Satellite Launch Center, People's Republic of China

...

Latest news about this satellite

News about space launch
Brightness of first Chinese broadband constellation satellites alarms astronomers

The first satellites of a Chinese broadband constellation are significantly brighter than those of Western systems, posing a new challenge for astronomers.

News about space launch
Chinese rocket stage breaks up into cloud of more than 700 pieces of space debris

HELSINKI — A Chinese Long March 6A rocket’s upper stage has fragmented into a cloud of over 700 pieces of space debris, adding to concerns about long-term orbital safety. China […]

News about space launch
China's Thousand Sails Megaconstellation Kicks Off with Dangerous Debris Field

China's Thousand Sails Megaconstellation Kicks Off with Dangerous Debris Field


Newsletter sign-up

Weekly statistics, charts and insights to help you stay on top of the space industry.